Time,TemperatureF,DewpointF,PressureIn,WindDirection,WindDirectionDegrees,WindSpeedMPH,WindSpeedGustMPH,Humidity,HourlyPrecipIn,Conditions,Clouds,dailyrainin,SoftwareType,DateUTC
2013-04-07 00:00:00,53.4,42.3,29.75,South,190,0.0,8.0,66,0.00,,,0.00,Wunderground v.1.15,2013-04-07 05:00:00,
2013-04-07 00:10:00,53.3,42.6,29.76,South,190,0.0,8.0,67,0.00,,,0.00,Wunderground v.1.15,2013-04-07 05:10:00,
2013-04-07 00:15:00,53.4,42.7,29.76,South,190,0.0,8.0,67,0.00,,,0.00,Wunderground v.1.15,2013-04-07 05:15:00,
2013-04-07 00:20:00,53.4,42.7,29.76,South,190,0.0,8.0,67,0.00,,,0.00,Wunderground v.1.15,2013-04-07 05:20:00,
2013-04-07 00:25:00,53.4,42.7,29.76,South,190,0.0,8.0,67,0.00,,,0.00,Wunderground v.1.15,2013-04-07 05:25:00,
2013-04-07 00:35:00,53.3,42.6,29.77,South,190,0.0,8.0,67,0.00,,,0.00,Wunderground v.1.15,2013-04-07 05:35:00,
2013-04-07 00:45:00,52.4,41.8,29.77,SW,218,0.0,8.0,67,0.00,,,0.00,Wunderground v.1.15,2013-04-07 05:45:00,
2013-04-07 00:55:00,52.1,41.9,29.77,SW,218,0.0,8.0,68,0.00,,,0.00,Wunderground v.1.15,2013-04-07 05:55:00,
2013-04-07 01:00:00,51.8,41.6,29.77,SW,218,0.0,8.0,68,0.00,,,0.00,Wunderground v.1.15,2013-04-07 06:00:00,
2013-04-07 01:05:00,51.4,41.6,29.78,SW,218,0.0,8.0,69,0.00,,,0.00,Wunderground v.1.15,2013-04-07 06:05:00,
2013-04-07 01:10:00,51.3,42.2,29.78,WSW,248,0.0,8.0,71,0.00,,,0.00,Wunderground v.1.15,2013-04-07 06:10:00,
2013-04-07 01:15:00,51.2,42.1,29.78,WSW,248,0.0,8.0,71,0.00,,,0.00,Wunderground v.1.15,2013-04-07 06:15:00,
2013-04-07 01:20:00,51.3,42.2,29.78,WSW,248,0.0,8.0,71,0.00,,,0.00,Wunderground v.1.15,2013-04-07 06:20:00,
2013-04-07 01:30:00,51.1,42.0,29.77,WSW,248,0.0,8.0,71,0.00,,,0.00,Wunderground v.1.15,2013-04-07 06:30:00,
2013-04-07 01:35:00,50.7,42.0,29.78,WSW,248,0.0,8.0,72,0.00,,,0.00,Wunderground v.1.15,2013-04-07 06:35:00,
2013-04-07 01:40:00,50.6,41.9,29.78,WSW,248,0.0,8.0,72,0.00,,,0.00,Wunderground v.1.15,2013-04-07 06:40:00,
2013-04-07 01:50:00,50.8,42.1,29.78,WSW,248,0.0,8.0,72,0.00,,,0.00,Wunderground v.1.15,2013-04-07 06:50:00,
2013-04-07 01:55:00,50.8,42.1,29.78,WSW,248,0.0,8.0,72,0.00,,,0.00,Wunderground v.1.15,2013-04-07 06:55:00,
2013-04-07 02:05:00,50.8,42.1,29.78,WSW,248,0.0,8.0,72,0.00,,,0.00,Wunderground v.1.15,2013-04-07 07:05:00,
2013-04-07 02:10:00,50.7,42.0,29.78,WSW,248,0.0,8.0,72,0.00,,,0.00,Wunderground v.1.15,2013-04-07 07:10:00,
2013-04-07 02:15:00,50.6,42.3,29.78,WSW,248,0.0,8.0,73,0.00,,,0.00,Wunderground v.1.15,2013-04-07 07:15:00,
2013-04-07 02:20:00,50.4,42.1,29.78,WSW,247,0.0,8.0,73,0.00,,,0.00,Wunderground v.1.15,2013-04-07 07:20:00,
2013-04-07 02:30:00,50.1,42.1,29.78,WSW,248,0.0,8.0,74,0.00,,,0.00,Wunderground v.1.15,2013-04-07 07:30:00,
2013-04-07 02:35:00,50.0,41.7,29.78,WSW,248,0.0,8.0,73,0.00,,,0.00,Wunderground v.1.15,2013-04-07 07:35:00,
2013-04-07 02:40:00,49.7,41.7,29.78,WSW,248,0.0,8.0,74,0.00,,,0.00,Wunderground v.1.15,2013-04-07 07:40:00,
2013-04-07 02:45:00,49.6,42.0,29.78,WSW,248,0.0,8.0,75,0.00,,,0.00,Wunderground v.1.15,2013-04-07 07:45:00,
2013-04-07 02:50:00,49.7,42.1,29.78,WSW,248,0.0,8.0,75,0.00,,,0.00,Wunderground v.1.15,2013-04-07 07:50:00,
2013-04-07 03:00:00,49.7,41.7,29.77,WSW,248,0.0,8.0,74,0.00,,,0.00,Wunderground v.1.15,2013-04-07 08:00:00,
2013-04-07 03:05:00,49.5,41.6,29.77,WSW,248,0.0,8.0,74,0.00,,,0.00,Wunderground v.1.15,2013-04-07 08:05:00,
2013-04-07 03:10:00,49.3,41.7,29.77,WSW,248,0.0,8.0,75,0.00,,,0.00,Wunderground v.1.15,2013-04-07 08:10:00,
2013-04-07 03:15:00,49.1,41.9,29.78,WSW,248,0.0,8.0,76,0.00,,,0.00,Wunderground v.1.15,2013-04-07 08:15:00,
2013-04-07 03:25:00,48.9,41.7,29.78,WSW,248,0.0,8.0,76,0.00,,,0.00,Wunderground v.1.15,2013-04-07 08:25:00,
2013-04-07 03:35:00,48.5,41.6,29.78,WSW,248,0.0,8.0,77,0.00,,,0.00,Wunderground v.1.15,2013-04-07 08:35:00,
2013-04-07 03:40:00,48.3,41.4,29.78,WSW,248,0.0,8.0,77,0.00,,,0.00,Wunderground v.1.15,2013-04-07 08:40:00,
2013-04-07 03:45:00,48.2,41.7,29.78,WSW,247,0.0,8.0,78,0.00,,,0.00,Wunderground v.1.15,2013-04-07 08:45:00,
2013-04-07 03:50:00,48.1,41.9,29.78,WSW,248,0.0,8.0,79,0.00,,,0.00,Wunderground v.1.15,2013-04-07 08:50:00,
2013-04-07 03:55:00,48.3,42.1,29.77,WSW,248,0.0,8.0,79,0.00,,,0.00,Wunderground v.1.15,2013-04-07 08:55:00,
2013-04-07 04:00:00,48.4,42.2,29.77,WSW,248,0.0,8.0,79,0.00,,,0.00,Wunderground v.1.15,2013-04-07 09:00:00,
2013-04-07 04:10:00,49.1,42.5,29.78,WSW,248,0.0,8.0,78,0.00,,,0.00,Wunderground v.1.15,2013-04-07 09:10:00,
2013-04-07 04:15:00,49.3,42.4,29.77,WSW,248,0.0,8.0,77,0.00,,,0.00,Wunderground v.1.15,2013-04-07 09:15:00,
2013-04-07 04:20:00,49.5,42.6,29.77,WSW,248,0.0,8.0,77,0.00,,,0.00,Wunderground v.1.15,2013-04-07 09:20:00,
2013-04-07 04:25:00,49.5,42.2,29.77,WSW,248,0.0,8.0,76,0.00,,,0.00,Wunderground v.1.15,2013-04-07 09:25:00,
2013-04-07 04:35:00,49.3,42.4,29.77,WSW,248,0.0,8.0,77,0.00,,,0.00,Wunderground v.1.15,2013-04-07 09:35:00,
2013-04-07 04:40:00,49.1,42.2,29.78,WSW,248,0.0,8.0,77,0.00,,,0.00,Wunderground v.1.15,2013-04-07 09:40:00,
2013-04-07 04:45:00,48.7,41.8,29.78,WSW,248,0.0,8.0,77,0.00,,,0.00,Wunderground v.1.15,2013-04-07 09:45:00,
2013-04-07 04:50:00,48.4,41.9,29.78,WSW,248,0.0,8.0,78,0.00,,,0.00,Wunderground v.1.15,2013-04-07 09:50:00,
2013-04-07 05:00:00,48.0,41.8,29.78,NE,50,0.0,8.0,79,0.00,,,0.00,Wunderground v.1.15,2013-04-07 10:00:00,
2013-04-07 05:05:00,47.9,41.7,29.78,NE,49,0.0,8.0,79,0.00,,,0.00,Wunderground v.1.15,2013-04-07 10:05:00,
2013-04-07 05:10:00,47.7,41.5,29.78,NE,49,0.0,8.0,79,0.00,,,0.00,Wunderground v.1.15,2013-04-07 10:10:00,
2013-04-07 05:15:00,47.4,41.5,29.78,NE,49,0.0,8.0,80,0.00,,,0.00,Wunderground v.1.15,2013-04-07 10:15:00,
2013-04-07 05:20:00,47.2,41.3,29.78,NE,49,0.0,8.0,80,0.00,,,0.00,Wunderground v.1.15,2013-04-07 10:20:00,
2013-04-07 05:25:00,47.0,41.1,29.78,NE,49,0.0,8.0,80,0.00,,,0.00,Wunderground v.1.15,2013-04-07 10:25:00,
2013-04-07 05:30:00,46.7,40.9,29.78,NE,49,0.0,8.0,80,0.00,,,0.00,Wunderground v.1.15,2013-04-07 10:30:00,
2013-04-07 05:40:00,46.2,40.7,29.79,NE,49,0.0,8.0,81,0.00,,,0.00,Wunderground v.1.15,2013-04-07 10:40:00,
2013-04-07 05:45:00,46.0,40.5,29.79,NE,50,0.0,8.0,81,0.00,,,0.00,Wunderground v.1.15,2013-04-07 10:45:00,
2013-04-07 05:50:00,45.8,40.3,29.79,NE,49,0.0,8.0,81,0.00,,,0.00,Wunderground v.1.15,2013-04-07 10:50:00,
2013-04-07 05:55:00,45.6,40.4,29.79,NE,49,0.0,8.0,82,0.00,,,0.00,Wunderground v.1.15,2013-04-07 10:55:00,
2013-04-07 06:00:00,45.5,40.3,29.79,NE,49,0.0,8.0,82,0.00,,,0.00,Wunderground v.1.15,2013-04-07 11:00:00,
2013-04-07 06:05:00,45.5,40.3,29.79,NE,49,0.0,8.0,82,0.00,,,0.00,Wunderground v.1.15,2013-04-07 11:05:00,
2013-04-07 06:15:00,45.9,40.4,29.80,SE,124,0.0,8.0,81,0.00,,,0.00,Wunderground v.1.15,2013-04-07 11:15:00,
2013-04-07 06:20:00,46.2,40.4,29.80,ESE,110,0.0,8.0,80,0.00,,,0.00,Wunderground v.1.15,2013-04-07 11:20:00,
2013-04-07 06:25:00,46.4,40.6,29.80,ESE,110,0.0,8.0,80,0.00,,,0.00,Wunderground v.1.15,2013-04-07 11:25:00,
2013-04-07 06:30:00,46.6,40.8,29.80,ESE,110,0.0,8.0,80,0.00,,,0.00,Wunderground v.1.15,2013-04-07 11:30:00,
2013-04-07 06:35:00,46.9,41.1,29.80,ESE,110,0.0,8.0,80,0.00,,,0.00,Wunderground v.1.15,2013-04-07 11:35:00,
2013-04-07 06:40:00,47.0,40.8,29.80,ESE,107,0.0,8.0,79,0.00,,,0.00,Wunderground v.1.15,2013-04-07 11:40:00,
2013-04-07 06:45:00,47.2,41.0,29.81,East,101,0.0,8.0,79,0.00,,,0.00,Wunderground v.1.15,2013-04-07 11:45:00,
2013-04-07 06:55:00,47.3,40.8,29.81,East,79,0.0,8.0,78,0.00,,,0.00,Wunderground v.1.15,2013-04-07 11:55:00,
2013-04-07 07:00:00,47.3,40.8,29.81,East,89,0.0,8.0,78,0.00,,,0.00,Wunderground v.1.15,2013-04-07 12:00:00,
2013-04-07 07:10:00,47.4,40.9,29.80,ESE,110,0.0,8.0,78,0.00,,,0.00,Wunderground v.1.15,2013-04-07 12:10:00,
2013-04-07 07:15:00,47.4,40.9,29.81,SSE,149,0.0,8.0,78,0.00,,,0.00,Wunderground v.1.15,2013-04-07 12:15:00,
2013-04-07 07:25:00,47.3,40.8,29.81,SE,145,0.0,8.0,78,0.00,,,0.00,Wunderground v.1.15,2013-04-07 12:25:00,
2013-04-07 07:30:00,47.3,40.8,29.82,SE,137,0.0,8.0,78,0.00,,,0.00,Wunderground v.1.15,2013-04-07 12:30:00,
2013-04-07 07:40:00,47.3,40.8,29.81,ESE,103,0.0,8.0,78,0.00,,,0.00,Wunderground v.1.15,2013-04-07 12:40:00,
2013-04-07 07:45:00,47.3,40.8,29.81,ESE,103,0.0,8.0,78,0.00,,,0.00,Wunderground v.1.15,2013-04-07 12:45:00,
2013-04-07 07:50:00,47.3,40.5,29.81,ESE,103,0.0,8.0,77,0.00,,,0.00,Wunderground v.1.15,2013-04-07 12:50:00,
2013-04-07 07:55:00,47.4,40.6,29.81,East,96,0.0,8.0,77,0.00,,,0.00,Wunderground v.1.15,2013-04-07 12:55:00,
2013-04-07 08:00:00,47.5,40.3,29.82,ESE,116,0.0,8.0,76,0.00,,,0.00,Wunderground v.1.15,2013-04-07 13:00:00,
2013-04-07 08:05:00,47.6,40.4,29.82,ESE,102,0.0,8.0,76,0.00,,,0.00,Wunderground v.1.15,2013-04-07 13:05:00,
2013-04-07 08:10:00,47.7,40.2,29.82,ESE,119,0.0,8.0,75,0.00,,,0.00,Wunderground v.1.15,2013-04-07 13:10:00,
2013-04-07 08:20:00,48.2,40.3,29.81,ESE,105,1.0,8.0,74,0.00,,,0.00,Wunderground v.1.15,2013-04-07 13:20:00,
2013-04-07 08:30:00,48.7,40.8,29.82,ESE,119,1.0,1.0,74,0.00,,,0.00,Wunderground v.1.15,2013-04-07 13:30:00,
2013-04-07 08:35:00,48.6,40.3,29.82,NW,309,1.0,8.0,73,0.00,,,0.00,Wunderground v.1.15,2013-04-07 13:35:00,
2013-04-07 08:40:00,48.7,40.8,29.83,ESE,114,1.0,8.0,74,0.00,,,0.00,Wunderground v.1.15,2013-04-07 13:40:00,
2013-04-07 08:45:00,48.7,40.8,29.83,ESE,107,1.0,8.0,74,0.00,,,0.00,Wunderground v.1.15,2013-04-07 13:45:00,
2013-04-07 08:50:00,48.8,40.5,29.82,ESE,110,1.0,1.0,73,0.00,,,0.00,Wunderground v.1.15,2013-04-07 13:50:00,
2013-04-07 08:55:00,48.8,40.9,29.82,ESE,105,1.0,2.0,74,0.00,,,0.00,Wunderground v.1.15,2013-04-07 13:55:00,
2013-04-07 09:00:00,49.0,40.7,29.83,East,98,1.0,1.0,73,0.00,,,0.00,Wunderground v.1.15,2013-04-07 14:00:00,
2013-04-07 09:10:00,49.7,41.0,29.82,ESE,112,1.0,1.0,72,0.00,,,0.00,Wunderground v.1.15,2013-04-07 14:10:00,
2013-04-07 09:15:00,50.2,41.2,29.82,ESE,105,1.0,1.0,71,0.00,,,0.00,Wunderground v.1.15,2013-04-07 14:15:00,
2013-04-07 09:25:00,50.2,40.8,29.81,ESE,112,1.0,1.0,70,0.00,,,0.00,Wunderground v.1.15,2013-04-07 14:25:00,
2013-04-07 09:35:00,50.0,41.0,29.82,NE,51,1.0,5.0,71,0.00,,,0.00,Wunderground v.1.15,2013-04-07 14:35:00,
2013-04-07 09:40:00,50.1,41.4,29.82,SE,131,0.0,5.0,72,0.00,,,0.00,Wunderground v.1.15,2013-04-07 14:40:00,
2013-04-07 09:50:00,50.3,41.3,29.82,ENE,77,0.0,5.0,71,0.00,,,0.00,Wunderground v.1.15,2013-04-07 14:50:00,
2013-04-07 09:55:00,50.4,41.3,29.82,ESE,108,1.0,5.0,71,0.00,,,0.00,Wunderground v.1.15,2013-04-07 14:55:00,
2013-04-07 10:05:00,50.9,41.8,29.81,SE,134,1.0,5.0,71,0.00,,,0.00,Wunderground v.1.15,2013-04-07 15:05:00,
2013-04-07 10:10:00,51.3,41.5,29.81,East,101,1.0,1.0,69,0.00,,,0.00,Wunderground v.1.15,2013-04-07 15:10:00,
2013-04-07 10:15:00,51.8,41.9,29.81,SE,132,1.0,5.0,69,0.00,,,0.00,Wunderground v.1.15,2013-04-07 15:15:00,
2013-04-07 10:20:00,52.3,42.0,29.81,East,88,1.0,1.0,68,0.00,,,0.00,Wunderground v.1.15,2013-04-07 15:20:00,
2013-04-07 10:25:00,52.6,41.9,29.81,East,84,1.0,2.0,67,0.00,,,0.00,Wunderground v.1.15,2013-04-07 15:25:00,
2013-04-07 10:35:00,52.8,42.1,29.81,ESE,113,1.0,5.0,67,0.00,,,0.00,Wunderground v.1.15,2013-04-07 15:35:00,
2013-04-07 10:40:00,52.8,41.7,29.80,East,89,1.0,1.0,66,0.00,,,0.00,Wunderground v.1.15,2013-04-07 15:40:00,
2013-04-07 10:45:00,53.0,41.9,29.80,East,96,2.0,2.0,66,0.00,,,0.00,Wunderground v.1.15,2013-04-07 15:45:00,
2013-04-07 10:55:00,53.7,42.6,29.80,East,98,1.0,5.0,66,0.00,,,0.00,Wunderground v.1.15,2013-04-07 15:55:00,
2013-04-07 11:00:00,54.3,42.8,29.80,SE,136,1.0,5.0,65,0.00,,,0.00,Wunderground v.1.15,2013-04-07 16:00:00,
2013-04-07 11:05:00,54.7,43.6,29.80,East,83,1.0,5.0,66,0.00,,,0.00,Wunderground v.1.15,2013-04-07 16:05:00,
2013-04-07 11:10:00,55.7,44.9,29.80,ESE,118,2.0,5.0,67,0.00,,,0.00,Wunderground v.1.15,2013-04-07 16:10:00,
2013-04-07 11:20:00,56.4,43.1,29.80,South,179,2.0,2.0,61,0.00,,,0.00,Wunderground v.1.15,2013-04-07 16:20:00,
2013-04-07 11:30:00,56.5,44.5,29.80,ESE,122,3.0,5.0,64,0.00,,,0.00,Wunderground v.1.15,2013-04-07 16:30:00,
2013-04-07 11:35:00,57.4,44.9,29.80,ESE,107,2.0,5.0,63,0.00,,,0.00,Wunderground v.1.15,2013-04-07 16:35:00,
2013-04-07 11:40:00,58.1,44.7,29.80,ENE,71,2.0,5.0,61,0.00,,,0.00,Wunderground v.1.15,2013-04-07 16:40:00,
2013-04-07 11:45:00,58.0,43.7,29.80,East,96,3.0,5.0,59,0.00,,,0.00,Wunderground v.1.15,2013-04-07 16:45:00,
2013-04-07 11:50:00,57.7,43.9,29.80,SE,133,3.0,3.0,60,0.00,,,0.00,Wunderground v.1.15,2013-04-07 16:50:00,
2013-04-07 11:55:00,57.9,45.0,29.80,SE,131,3.0,5.0,62,0.00,,,0.00,Wunderground v.1.15,2013-04-07 16:55:00,
2013-04-07 12:00:00,58.0,44.2,29.79,East,87,2.0,5.0,60,0.00,,,0.00,Wunderground v.1.15,2013-04-07 17:00:00,
2013-04-07 12:05:00,58.1,44.3,29.79,SE,131,2.0,5.0,60,0.00,,,0.00,Wunderground v.1.15,2013-04-07 17:05:00,
2013-04-07 12:15:00,59.5,45.2,29.78,NE,56,3.0,5.0,59,0.00,,,0.00,Wunderground v.1.15,2013-04-07 17:15:00,
2013-04-07 12:20:00,60.5,46.1,29.78,ESE,115,3.0,7.0,59,0.00,,,0.00,Wunderground v.1.15,2013-04-07 17:20:00,
2013-04-07 12:25:00,61.1,45.3,29.78,ESE,102,4.0,7.0,56,0.00,,,0.00,Wunderground v.1.15,2013-04-07 17:25:00,
2013-04-07 12:30:00,61.8,45.9,29.77,East,91,3.0,5.0,56,0.00,,,0.00,Wunderground v.1.15,2013-04-07 17:30:00,
2013-04-07 12:35:00,62.7,46.3,29.77,SE,136,2.0,5.0,55,0.00,,,0.00,Wunderground v.1.15,2013-04-07 17:35:00,
2013-04-07 12:45:00,63.7,45.7,29.76,ESE,104,3.0,5.0,52,0.00,,,0.00,Wunderground v.1.15,2013-04-07 17:45:00,
2013-04-07 12:50:00,63.9,45.4,29.76,East,85,4.0,6.0,51,0.00,,,0.00,Wunderground v.1.15,2013-04-07 17:50:00,
2013-04-07 13:00:00,65.4,47.3,29.76,East,80,4.0,8.0,52,0.00,,,0.00,Wunderground v.1.15,2013-04-07 18:00:00,
2013-04-07 13:05:00,66.0,45.7,29.75,ENE,77,4.0,8.0,48,0.00,,,0.00,Wunderground v.1.15,2013-04-07 18:05:00,
2013-04-07 13:10:00,66.2,45.9,29.75,ESE,122,5.0,5.0,48,0.00,,,0.00,Wunderground v.1.15,2013-04-07 18:10:00,
2013-04-07 13:15:00,66.2,45.4,29.75,ESE,123,5.0,5.0,47,0.00,,,0.00,Wunderground v.1.15,2013-04-07 18:15:00,
2013-04-07 13:20:00,66.1,45.3,29.75,SE,125,5.0,5.0,47,0.00,,,0.00,Wunderground v.1.15,2013-04-07 18:20:00,
2013-04-07 13:25:00,66.0,45.2,29.75,ESE,107,3.0,6.0,47,0.00,,,0.00,Wunderground v.1.15,2013-04-07 18:25:00,
2013-04-07 13:30:00,65.9,45.1,29.75,SSE,152,4.0,4.0,47,0.00,,,0.00,Wunderground v.1.15,2013-04-07 18:30:00,
2013-04-07 13:40:00,65.9,45.1,29.74,East,99,4.0,5.0,47,0.00,,,0.00,Wunderground v.1.15,2013-04-07 18:40:00,
2013-04-07 13:50:00,66.3,45.5,29.73,ESE,120,4.0,5.0,47,0.00,,,0.00,Wunderground v.1.15,2013-04-07 18:50:00,
2013-04-07 13:55:00,66.9,46.0,29.73,ESE,112,4.0,7.0,47,0.00,,,0.00,Wunderground v.1.15,2013-04-07 18:55:00,
2013-04-07 14:00:00,67.8,46.3,29.73,East,86,5.0,5.0,46,0.00,,,0.00,Wunderground v.1.15,2013-04-07 19:00:00,
2013-04-07 14:10:00,69.3,45.2,29.72,SE,126,5.0,5.0,42,0.00,,,0.00,Wunderground v.1.15,2013-04-07 19:10:00,
2013-04-07 14:15:00,70.1,46.6,29.72,ESE,110,5.0,6.0,43,0.00,,,0.00,Wunderground v.1.15,2013-04-07 19:15:00,
2013-04-07 14:20:00,70.2,45.4,29.72,ESE,117,4.0,4.0,41,0.00,,,0.00,Wunderground v.1.15,2013-04-07 19:20:00,
2013-04-07 14:25:00,70.1,44.6,29.71,East,91,4.0,7.0,40,0.00,,,0.00,Wunderground v.1.15,2013-04-07 19:25:00,
2013-04-07 14:30:00,69.9,44.5,29.71,ESE,110,4.0,5.0,40,0.00,,,0.00,Wunderground v.1.15,2013-04-07 19:30:00,
2013-04-07 14:35:00,70.1,44.0,29.71,ESE,108,5.0,6.0,39,0.00,,,0.00,Wunderground v.1.15,2013-04-07 19:35:00,
2013-04-07 14:40:00,70.2,44.1,29.71,ESE,102,5.0,5.0,39,0.00,,,0.00,Wunderground v.1.15,2013-04-07 19:40:00,
2013-04-07 14:50:00,70.7,45.2,29.70,ESE,108,4.0,5.0,40,0.00,,,0.00,Wunderground v.1.15,2013-04-07 19:50:00,
2013-04-07 14:55:00,71.6,44.6,29.70,SE,146,4.0,5.0,38,0.00,,,0.00,Wunderground v.1.15,2013-04-07 19:55:00,
2013-04-07 15:00:00,73.0,45.9,29.69,ENE,77,4.0,4.0,38,0.00,,,0.00,Wunderground v.1.15,2013-04-07 20:00:00,
2013-04-07 15:05:00,74.4,45.0,29.69,ESE,115,3.0,5.0,35,0.00,,,0.00,Wunderground v.1.15,2013-04-07 20:05:00,
2013-04-07 15:10:00,75.1,43.2,29.69,SE,132,3.0,3.0,32,0.00,,,0.00,Wunderground v.1.15,2013-04-07 20:10:00,
2013-04-07 15:20:00,73.7,42.8,29.69,East,90,4.0,5.0,33,0.00,,,0.00,Wunderground v.1.15,2013-04-07 20:20:00,
2013-04-07 15:25:00,72.9,43.6,29.68,SE,132,4.0,5.0,35,0.00,,,0.00,Wunderground v.1.15,2013-04-07 20:25:00,
2013-04-07 15:30:00,72.6,43.4,29.68,SSE,167,3.0,3.0,35,0.00,,,0.00,Wunderground v.1.15,2013-04-07 20:30:00,
2013-04-07 15:35:00,72.6,43.4,29.67,East,91,3.0,4.0,35,0.00,,,0.00,Wunderground v.1.15,2013-04-07 20:35:00,
2013-04-07 15:40:00,72.5,42.5,29.67,ESE,107,3.0,5.0,34,0.00,,,0.00,Wunderground v.1.15,2013-04-07 20:40:00,
2013-04-07 15:45:00,72.7,43.5,29.67,ESE,104,3.0,5.0,35,0.00,,,0.00,Wunderground v.1.15,2013-04-07 20:45:00,
2013-04-07 15:50:00,72.8,42.8,29.67,SSE,152,2.0,5.0,34,0.00,,,0.00,Wunderground v.1.15,2013-04-07 20:50:00,
2013-04-07 15:55:00,72.8,43.5,29.66,SE,134,3.0,5.0,35,0.00,,,0.00,Wunderground v.1.15,2013-04-07 20:55:00,
2013-04-07 16:00:00,72.8,43.5,29.66,SSE,167,2.0,5.0,35,0.00,,,0.00,Wunderground v.1.15,2013-04-07 21:00:00,
2013-04-07 16:10:00,72.8,42.0,29.66,NE,41,3.0,5.0,33,0.00,,,0.00,Wunderground v.1.15,2013-04-07 21:10:00,
2013-04-07 16:15:00,72.8,41.2,29.66,West,281,3.0,5.0,32,0.00,,,0.00,Wunderground v.1.15,2013-04-07 21:15:00,
2013-04-07 16:20:00,72.6,41.0,29.66,SE,129,2.0,5.0,32,0.00,,,0.00,Wunderground v.1.15,2013-04-07 21:20:00,
2013-04-07 16:30:00,72.0,42.8,29.65,ESE,102,3.0,3.0,35,0.00,,,0.00,Wunderground v.1.15,2013-04-07 21:30:00,
2013-04-07 16:40:00,71.2,43.6,29.67,WNW,302,5.0,12.0,37,0.00,,,0.00,Wunderground v.1.15,2013-04-07 21:40:00,
2013-04-07 16:45:00,68.3,46.7,29.68,SE,128,7.0,12.0,46,0.00,,,0.00,Wunderground v.1.15,2013-04-07 21:45:00,
2013-04-07 16:50:00,65.5,48.4,29.68,South,180,6.0,6.0,54,0.00,,,0.01,Wunderground v.1.15,2013-04-07 21:50:00,
2013-04-07 16:55:00,64.2,47.7,29.68,ESE,115,5.0,6.0,55,0.00,,,0.01,Wunderground v.1.15,2013-04-07 21:55:00,
2013-04-07 17:00:00,63.9,48.8,29.68,SE,132,3.0,3.0,58,0.00,,,0.01,Wunderground v.1.15,2013-04-07 22:00:00,
2013-04-07 17:05:00,63.7,49.1,29.68,SE,128,2.0,5.0,59,0.00,,,0.01,Wunderground v.1.15,2013-04-07 22:05:00,
2013-04-07 17:10:00,63.7,50.0,29.68,SE,143,2.0,5.0,61,0.00,,,0.01,Wunderground v.1.15,2013-04-07 22:10:00,
2013-04-07 17:20:00,64.1,51.2,29.65,NW,316,0.0,5.0,63,0.00,,,0.01,Wunderground v.1.15,2013-04-07 22:20:00,
2013-04-07 17:25:00,64.3,50.6,29.65,NW,316,0.0,5.0,61,0.00,,,0.01,Wunderground v.1.15,2013-04-07 22:25:00,
2013-04-07 17:35:00,64.9,50.7,29.64,NW,316,0.0,5.0,60,0.00,,,0.01,Wunderground v.1.15,2013-04-07 22:35:00,
2013-04-07 17:40:00,65.2,50.5,29.64,NW,316,0.0,5.0,59,0.00,,,0.01,Wunderground v.1.15,2013-04-07 22:40:00,
2013-04-07 17:45:00,65.7,51.4,29.64,NW,316,0.0,5.0,60,0.00,,,0.01,Wunderground v.1.15,2013-04-07 22:45:00,
2013-04-07 17:50:00,66.1,51.4,29.64,NW,316,0.0,5.0,59,0.00,,,0.01,Wunderground v.1.15,2013-04-07 22:50:00,
2013-04-07 18:00:00,66.4,51.2,29.63,NW,316,0.0,5.0,58,0.00,,,0.01,Wunderground v.1.15,2013-04-07 23:00:00,
2013-04-07 18:05:00,66.7,51.9,29.64,East,99,0.0,5.0,59,0.00,,,0.01,Wunderground v.1.15,2013-04-07 23:05:00,
2013-04-07 18:10:00,66.8,52.0,29.63,ESE,113,0.0,5.0,59,0.00,,,0.01,Wunderground v.1.15,2013-04-07 23:10:00,
2013-04-07 18:20:00,66.4,51.2,29.63,ESE,113,0.0,5.0,58,0.00,,,0.01,Wunderground v.1.15,2013-04-07 23:20:00,
2013-04-07 18:25:00,66.4,50.7,29.63,ESE,114,0.0,5.0,57,0.00,,,0.01,Wunderground v.1.15,2013-04-07 23:25:00,
2013-04-07 18:30:00,66.3,49.6,29.63,ESE,114,0.0,5.0,55,0.00,,,0.01,Wunderground v.1.15,2013-04-07 23:30:00,
2013-04-07 18:40:00,66.4,50.2,29.63,ESE,114,0.0,5.0,56,0.00,,,0.01,Wunderground v.1.15,2013-04-07 23:40:00,
2013-04-07 18:45:00,66.7,49.5,29.62,ESE,114,0.0,5.0,54,0.00,,,0.01,Wunderground v.1.15,2013-04-07 23:45:00,
2013-04-07 18:50:00,66.8,49.6,29.62,ESE,114,0.0,5.0,54,0.00,,,0.01,Wunderground v.1.15,2013-04-07 23:50:00,
2013-04-07 19:00:00,66.7,49.0,29.62,ESE,114,0.0,5.0,53,0.00,,,0.01,Wunderground v.1.15,2013-04-08 00:00:00,
2013-04-07 19:05:00,66.3,49.2,29.62,East,93,0.0,5.0,54,0.00,,,0.01,Wunderground v.1.15,2013-04-08 00:05:00,
2013-04-07 19:10:00,66.0,48.9,29.62,East,99,0.0,5.0,54,0.00,,,0.01,Wunderground v.1.15,2013-04-08 00:10:00,
2013-04-07 19:20:00,65.5,48.9,29.61,East,100,0.0,5.0,55,0.00,,,0.01,Wunderground v.1.15,2013-04-08 00:20:00,
2013-04-07 19:25:00,65.1,48.5,29.61,East,99,0.0,5.0,55,0.00,,,0.01,Wunderground v.1.15,2013-04-08 00:25:00,
2013-04-07 19:30:00,64.7,48.6,29.61,East,98,0.0,5.0,56,0.00,,,0.01,Wunderground v.1.15,2013-04-08 00:30:00,
2013-04-07 19:35:00,64.3,48.3,29.61,East,98,0.0,5.0,56,0.00,,,0.01,Wunderground v.1.15,2013-04-08 00:35:00,
2013-04-07 19:40:00,63.8,48.3,29.61,East,97,0.0,5.0,57,0.00,,,0.01,Wunderground v.1.15,2013-04-08 00:40:00,
2013-04-07 19:45:00,63.4,48.4,29.61,East,98,0.0,5.0,58,0.00,,,0.01,Wunderground v.1.15,2013-04-08 00:45:00,
2013-04-07 19:50:00,63.1,48.5,29.61,East,98,0.0,5.0,59,0.00,,,0.01,Wunderground v.1.15,2013-04-08 00:50:00,
2013-04-07 20:00:00,62.6,48.5,29.60,East,98,0.0,5.0,60,0.00,,,0.01,Wunderground v.1.15,2013-04-08 01:00:00,
2013-04-07 20:10:00,62.4,48.3,29.60,East,98,0.0,5.0,60,0.00,,,0.01,Wunderground v.1.15,2013-04-08 01:10:00,
2013-04-07 20:15:00,62.4,48.8,29.60,East,98,0.0,5.0,61,0.00,,,0.01,Wunderground v.1.15,2013-04-08 01:15:00,
2013-04-07 20:20:00,62.3,48.7,29.61,East,98,0.0,5.0,61,0.00,,,0.01,Wunderground v.1.15,2013-04-08 01:20:00,
2013-04-07 20:25:00,62.1,48.5,29.61,East,98,0.0,5.0,61,0.00,,,0.01,Wunderground v.1.15,2013-04-08 01:25:00,
2013-04-07 20:30:00,62.0,48.4,29.61,East,97,0.0,5.0,61,0.00,,,0.01,Wunderground v.1.15,2013-04-08 01:30:00,
2013-04-07 20:40:00,62.0,48.4,29.60,East,98,0.0,5.0,61,0.00,,,0.01,Wunderground v.1.15,2013-04-08 01:40:00,
2013-04-07 20:45:00,62.0,48.4,29.60,East,98,0.0,5.0,61,0.00,,,0.01,Wunderground v.1.15,2013-04-08 01:45:00,
2013-04-07 20:50:00,62.0,48.4,29.60,East,98,0.0,5.0,61,0.00,,,0.01,Wunderground v.1.15,2013-04-08 01:50:00,
2013-04-07 21:00:00,61.7,48.5,29.61,East,98,0.0,5.0,62,0.00,,,0.01,Wunderground v.1.15,2013-04-08 02:00:00,
2013-04-07 21:05:00,61.6,48.9,29.62,NNE,25,0.0,5.0,63,0.00,,,0.01,Wunderground v.1.15,2013-04-08 02:05:00,
2013-04-07 21:10:00,61.2,48.5,29.62,WNW,292,1.0,5.0,63,0.00,,,0.01,Wunderground v.1.15,2013-04-08 02:10:00,
2013-04-07 21:15:00,60.6,48.8,29.62,ENE,65,3.0,5.0,65,0.00,,,0.01,Wunderground v.1.15,2013-04-08 02:15:00,
2013-04-07 21:20:00,60.4,48.2,29.62,East,95,2.0,5.0,64,0.00,,,0.01,Wunderground v.1.15,2013-04-08 02:20:00,
2013-04-07 21:25:00,60.6,47.9,29.62,ESE,107,1.0,5.0,63,0.00,,,0.01,Wunderground v.1.15,2013-04-08 02:25:00,
2013-04-07 21:30:00,60.5,47.8,29.62,SSW,204,1.0,5.0,63,0.00,,,0.01,Wunderground v.1.15,2013-04-08 02:30:00,
2013-04-07 21:35:00,59.4,48.4,29.63,ESE,102,2.0,5.0,67,0.00,,,0.01,Wunderground v.1.15,2013-04-08 02:35:00,
2013-04-07 21:45:00,58.2,48.5,29.63,West,259,2.0,5.0,70,0.00,,,0.01,Wunderground v.1.15,2013-04-08 02:45:00,
2013-04-07 21:55:00,57.5,48.9,29.63,ENE,77,1.0,5.0,73,0.00,,,0.01,Wunderground v.1.15,2013-04-08 02:55:00,
2013-04-07 22:00:00,57.2,48.6,29.63,East,89,2.0,5.0,73,0.00,,,0.01,Wunderground v.1.15,2013-04-08 03:00:00,
2013-04-07 22:10:00,56.8,49.3,29.64,SE,126,1.0,1.0,76,0.00,,,0.01,Wunderground v.1.15,2013-04-08 03:10:00,
2013-04-07 22:15:00,56.6,49.1,29.65,WSW,255,1.0,5.0,76,0.00,,,0.01,Wunderground v.1.15,2013-04-08 03:15:00,
2013-04-07 22:20:00,56.4,49.6,29.66,SW,233,0.0,5.0,78,0.00,,,0.01,Wunderground v.1.15,2013-04-08 03:20:00,
2013-04-07 22:30:00,55.8,49.7,29.67,SE,126,2.0,2.0,80,0.30,,,0.05,Wunderground v.1.15,2013-04-08 03:30:00,
2013-04-07 22:40:00,54.8,50.1,29.67,East,95,0.0,5.0,84,0.14,,,0.09,Wunderground v.1.15,2013-04-08 03:40:00,
2013-04-07 22:45:00,54.5,50.1,29.67,ESE,105,0.0,5.0,85,0.51,,,0.12,Wunderground v.1.15,2013-04-08 03:45:00,
2013-04-07 22:55:00,54.1,50.6,29.67,NNE,13,0.0,5.0,88,0.12,,,0.15,Wunderground v.1.15,2013-04-08 03:55:00,
2013-04-07 23:00:00,53.8,50.6,29.67,ESE,102,0.0,5.0,89,0.22,,,0.18,Wunderground v.1.15,2013-04-08 04:00:00,
2013-04-07 23:05:00,53.5,50.6,29.66,West,262,0.0,5.0,90,0.21,,,0.19,Wunderground v.1.15,2013-04-08 04:05:00,
2013-04-07 23:10:00,53.4,50.8,29.65,West,263,0.0,5.0,91,0.18,,,0.21,Wunderground v.1.15,2013-04-08 04:10:00,
2013-04-07 23:15:00,53.3,50.7,29.65,ENE,74,0.0,5.0,91,0.15,,,0.22,Wunderground v.1.15,2013-04-08 04:15:00,
2013-04-07 23:20:00,53.3,51.0,29.65,East,79,0.0,5.0,92,0.09,,,0.22,Wunderground v.1.15,2013-04-08 04:20:00,
2013-04-07 23:25:00,53.3,51.0,29.64,East,79,0.0,5.0,92,0.05,,,0.22,Wunderground v.1.15,2013-04-08 04:25:00,
2013-04-07 23:30:00,53.3,51.0,29.64,East,79,0.0,5.0,92,0.04,,,0.22,Wunderground v.1.15,2013-04-08 04:30:00,
2013-04-07 23:35:00,53.3,51.0,29.64,East,81,0.0,5.0,92,0.00,,,0.22,Wunderground v.1.15,2013-04-08 04:35:00,
2013-04-07 23:40:00,53.2,50.9,29.64,East,80,0.0,5.0,92,0.00,,,0.22,Wunderground v.1.15,2013-04-08 04:40:00,
2013-04-07 23:45:00,53.2,50.9,29.63,ENE,77,0.0,5.0,92,0.00,,,0.22,Wunderground v.1.15,2013-04-08 04:45:00,
2013-04-07 23:50:00,53.1,50.8,29.63,NE,43,0.0,5.0,92,0.00,,,0.22,Wunderground v.1.15,2013-04-08 04:50:00,
2013-04-07 23:55:00,53.0,51.0,29.63,ENE,58,0.0,5.0,93,0.00,,,0.22,Wunderground v.1.15,2013-04-08 04:55:00,